period_start,C,m1,H,J0,J1,J2,J3,J4,J5,JA,JB,JC,JD,JJ,JK,JN,#
2017-02-26 00:02:28,0.22,7.00,0.00,19.77,23.10,27.34,14.89,48.68,1021.02,2040.99,1654.58,1759.76,2001.76,600.37,605.49,31.86,0000 0000 0000 0000 000000
2017-02-26 00:07:29,0.20,7.01,0.00,19.79,23.10,27.36,14.79,48.62,1021.01,2040.99,1652.98,1758.63,2000.49,600.05,605.28,31.91,0000 0000 0000 0000 000000
2017-02-26 00:12:31,0.19,7.02,0.00,19.77,23.10,27.37,14.79,48.53,1021.02,2040.99,1651.39,1757.47,1999.11,599.74,604.97,31.97,0000 0000 0000 0000 000000
2017-02-26 00:17:32,0.21,7.03,0.00,19.77,23.09,27.36,14.76,48.68,1021.01,2040.99,1649.75,1756.31,1997.70,599.88,605.04,32.02,0000 0000 0000 0000 000000
2017-02-26 00:22:33,0.18,7.05,0.00,19.78,23.10,27.36,14.75,48.74,1021.01,2040.99,1648.12,1755.12,1996.32,600.01,605.17,32.07,0000 0000 0000 0000 000000
2017-02-26 00:27:35,0.24,7.06,0.00,19.80,23.10,27.35,14.82,48.75,1021.01,2040.99,1646.37,1753.84,1994.76,600.27,605.41,32.12,0000 0000 0000 0000 000000
2017-02-26 00:32:36,0.25,7.07,0.00,19.80,23.10,27.36,14.79,48.80,1021.01,2040.99,1644.48,1752.44,1993.03,600.13,605.41,32.17,0000 0000 0000 0000 000000
2017-02-26 00:37:37,0.25,7.08,0.00,19.81,23.10,27.37,14.75,48.76,1021.01,2040.99,1642.49,1750.81,1991.16,599.75,605.05,32.22,0000 0000 0000 0000 000000
2017-02-26 00:42:38,0.25,7.09,0.00,19.81,23.10,27.37,14.78,48.73,1021.01,2040.99,1640.61,1749.38,1989.43,599.96,605.13,32.27,0000 0000 0000 0000 000000
2017-02-26 00:47:40,0.23,7.11,0.00,19.82,23.11,27.38,14.89,48.67,1021.01,2040.99,1638.89,1747.95,1987.76,600.22,605.37,32.32,0000 0000 0000 0000 000000
2017-02-26 00:52:41,0.30,7.12,0.00,19.82,23.12,27.38,14.82,48.73,1021.01,2040.99,1636.80,1746.24,1985.74,600.48,605.48,32.37,0000 0000 0000 0000 000000
2017-02-26 00:57:43,0.30,7.13,0.00,19.85,23.12,27.39,14.79,48.71,1021.01,2040.99,1634.50,1744.51,1983.69,599.83,604.86,32.42,0000 0000 0000 0000 000000
2017-02-26 01:02:44,0.29,7.15,0.00,19.86,23.12,27.41,14.83,48.77,1021.03,2040.99,1632.41,1742.72,1981.69,600.18,605.15,32.47,0000 0000 0000 0000 000000
2017-02-26 01:07:45,0.22,7.16,0.00,19.85,23.12,27.41,14.86,48.73,1021.01,2040.98,1630.65,1741.41,1980.08,600.14,605.09,32.52,0000 0000 0000 0000 000000
2017-02-26 01:12:47,0.21,7.18,0.00,19.86,23.13,27.41,14.77,48.71,1021.01,2040.99,1628.94,1740.13,1978.64,600.17,605.20,32.57,0000 0000 0000 0000 000000
2017-02-26 01:17:48,0.20,7.19,0.00,19.87,23.14,27.42,14.78,48.73,1021.01,2040.98,1627.33,1738.92,1977.15,600.13,605.07,32.62,0000 0000 0000 0000 000000
2017-02-26 01:22:49,0.24,7.20,0.00,19.94,23.14,27.43,14.72,48.80,1021.01,2040.99,1625.57,1737.69,1975.69,600.15,604.98,32.67,0000 0000 0000 0000 000000
2017-02-26 01:27:51,0.20,7.21,0.00,19.94,23.14,27.44,14.80,48.82,1021.01,2040.98,1623.90,1736.49,1974.26,599.83,604.77,32.72,0000 0000 0000 0000 000000
2017-02-26 01:32:52,0.20,7.22,0.00,19.96,23.15,27.45,14.77,48.85,1021.01,2040.97,1622.30,1735.39,1972.82,600.21,604.91,32.77,0000 0000 0000 0000 000000
2017-02-26 01:37:53,0.20,7.23,0.00,19.97,23.17,27.46,14.78,48.72,1021.01,2040.96,1620.72,1734.28,1971.54,600.00,604.77,32.82,0000 0000 0000 0000 000000
2017-02-26 01:42:55,0.18,7.24,0.00,20.00,23.17,27.47,14.72,48.88,1021.01,2040.98,1619.18,1733.23,1970.22,599.98,604.66,32.88,0000 0000 0000 0000 000000
2017-02-26 01:47:56,0.20,7.25,0.00,20.04,23.19,27.49,14.78,48.87,1021.02,2040.96,1617.58,1732.07,1968.82,600.10,604.82,32.93,0000 0000 0000 0000 000000
2017-02-26 01:52:57,0.20,7.26,0.00,20.05,23.19,27.51,14.68,48.69,1021.01,2040.93,1615.97,1730.90,1967.50,599.67,604.30,32.98,0000 0000 0000 0000 000000
2017-02-26 01:57:58,0.22,7.27,0.00,20.04,23.20,27.52,14.79,48.67,1021.01,2040.85,1614.29,1729.63,1965.92,599.99,604.63,33.03,0000 0000 0000 0000 000000
2017-02-26 02:03:00,0.21,7.28,0.00,20.05,23.22,27.53,14.82,48.89,1021.01,2040.73,1612.56,1728.37,1964.37,599.97,604.71,33.08,0000 0000 0000 0000 000000
2017-02-26 02:08:01,0.18,7.29,0.00,20.07,23.22,27.55,14.82,48.75,1021.02,2040.43,1610.79,1727.13,1962.73,600.04,604.61,33.13,0000 0000 0000 0000 000000
2017-02-26 02:13:02,0.18,7.30,0.00,20.09,23.24,27.57,14.80,48.80,1021.01,2040.10,1609.07,1725.87,1961.26,600.03,604.45,33.18,0000 0000 0000 0000 000000
2017-02-26 02:18:04,0.23,7.31,0.00,20.09,23.25,27.57,14.82,48.65,1021.01,2040.06,1607.45,1724.59,1959.73,600.15,604.68,33.23,0000 0000 0000 0000 000000
2017-02-26 02:23:05,0.22,7.32,0.00,20.11,23.27,27.60,14.76,48.78,1021.01,2040.06,1605.72,1723.35,1958.20,600.06,604.51,33.28,0000 0000 0000 0000 000000
2017-02-26 02:28:07,0.24,7.33,0.00,20.12,23.27,27.59,14.72,48.83,1021.01,2040.04,1603.93,1721.93,1956.63,600.03,604.56,33.33,0000 0000 0000 0000 000000
2017-02-26 02:33:08,0.21,7.35,0.00,20.13,23.29,27.62,14.81,48.79,1021.02,2040.02,1602.31,1720.69,1955.12,600.10,604.52,33.38,0000 0000 0000 0000 000000
2017-02-26 02:38:10,0.22,7.35,0.00,20.16,23.30,27.63,14.83,48.93,1021.02,2040.00,1600.70,1719.56,1953.70,600.16,604.59,33.43,0000 0000 0000 0000 000000
2017-02-26 02:43:11,0.18,7.37,0.00,20.18,23.32,27.64,14.77,49.03,1021.01,2040.00,1599.16,1718.41,1952.38,599.88,604.19,33.48,0000 0000 0000 0000 000000
2017-02-26 02:48:12,0.20,7.38,0.00,20.20,23.33,27.66,14.71,49.02,1021.01,2040.00,1597.73,1717.41,1951.00,599.80,604.17,33.53,0000 0000 0000 0000 000000
2017-02-26 02:53:14,0.20,7.39,0.00,20.22,23.34,27.67,14.77,49.01,1021.01,2040.00,1596.18,1716.24,1949.62,600.04,604.33,33.58,0000 0000 0000 0000 000000
2017-02-26 02:58:15,0.22,7.40,0.00,20.24,23.36,27.68,14.79,48.93,1021.01,2040.00,1594.46,1714.98,1948.17,600.13,604.41,33.63,0000 0000 0000 0000 000000
2017-02-26 03:03:16,0.22,7.41,0.00,20.27,23.37,27.71,14.75,48.93,1021.01,2040.00,1592.85,1713.82,1946.77,600.31,604.38,33.68,0000 0000 0000 0000 000000
2017-02-26 03:08:17,0.20,7.42,0.00,20.30,23.39,27.70,14.65,48.92,1021.01,2040.00,1591.31,1712.71,1945.43,599.59,603.64,33.74,0000 0000 0000 0000 000000
2017-02-26 03:13:19,0.21,7.43,0.00,20.31,23.41,27.73,14.77,48.95,1021.01,2039.99,1589.67,1711.57,1944.01,599.77,603.88,33.79,0000 0000 0000 0000 000000
2017-02-26 03:18:20,0.19,7.44,0.00,20.35,23.43,27.74,14.75,49.00,1021.03,2039.98,1588.12,1710.48,1942.68,599.85,603.90,33.84,0000 0000 0000 0000 000000
2017-02-26 03:23:21,0.20,7.45,0.00,20.37,23.45,27.77,14.79,48.95,1021.04,2039.97,1586.55,1709.39,1941.38,599.88,603.95,33.89,0000 0000 0000 0000 000000
2017-02-26 03:28:22,0.18,7.46,0.00,20.39,23.47,27.77,14.80,49.08,1021.09,2039.87,1585.00,1708.30,1940.01,600.20,604.20,33.94,0000 0000 0000 0000 000000
2017-02-26 03:33:24,0.19,7.47,0.00,20.41,23.49,27.79,14.85,48.88,1021.20,2039.80,1583.50,1707.24,1938.70,600.07,604.08,33.99,0000 0000 0000 0000 000000
2017-02-26 03:38:25,0.15,7.48,0.00,20.42,23.51,27.82,14.73,48.89,1021.14,2039.60,1581.91,1706.16,1937.44,599.79,603.76,34.04,0000 0000 0000 0000 000000
2017-02-26 03:43:26,0.14,7.49,0.00,20.43,23.52,27.83,14.70,48.77,1021.06,2039.16,1580.38,1705.03,1936.10,600.03,603.91,34.09,0000 0000 0000 0000 000000
2017-02-26 03:48:28,0.23,7.50,0.00,20.47,23.55,27.86,14.76,48.79,1021.25,2039.04,1578.73,1703.89,1934.71,599.90,603.84,34.14,0000 0000 0000 0000 000000
2017-02-26 03:53:29,0.19,7.51,0.00,20.48,23.57,27.88,14.77,48.76,1021.21,2039.02,1577.08,1702.80,1933.33,599.95,603.82,34.19,0000 0000 0000 0000 000000
2017-02-26 03:58:30,0.22,7.52,0.00,20.51,23.59,27.88,14.72,48.75,1021.23,2039.01,1575.52,1701.66,1931.96,599.93,603.72,34.24,0000 0000 0000 0000 000000
2017-02-26 04:03:31,0.22,7.53,0.00,20.54,23.61,27.90,14.76,48.83,1021.34,2039.00,1573.86,1700.60,1930.59,600.11,603.94,34.29,0000 0000 0000 0000 000000
2017-02-26 04:08:33,0.19,7.54,0.00,20.56,23.63,27.94,14.68,48.83,1021.26,2039.00,1572.30,1699.46,1929.30,600.04,603.78,34.34,0000 0000 0000 0000 000000
2017-02-26 04:13:34,0.20,7.55,0.00,20.58,23.66,27.96,14.77,48.98,1021.26,2038.99,1570.72,1698.43,1927.93,600.30,603.93,34.39,0000 0000 0000 0000 000000
2017-02-26 04:18:35,0.20,7.56,0.00,20.60,23.68,27.96,14.76,48.84,1021.37,2038.96,1569.08,1697.27,1926.57,600.08,603.78,34.44,0000 0000 0000 0000 000000
2017-02-26 04:23:36,0.19,7.57,0.00,20.63,23.71,27.97,14.71,48.90,1021.34,2038.91,1567.50,1696.13,1925.23,600.10,604.00,34.49,0000 0000 0000 0000 000000
2017-02-26 04:28:37,0.17,7.58,0.00,20.67,23.73,28.01,14.71,48.86,1021.27,2038.63,1565.88,1695.06,1923.88,600.01,603.41,34.54,0000 0000 0000 0000 000000
2017-02-26 04:33:39,0.15,7.59,0.00,20.69,23.76,28.04,14.72,48.91,1021.12,2038.23,1564.34,1693.93,1922.63,600.20,603.65,34.59,0000 0000 0000 0000 000000
2017-02-26 04:38:40,0.19,7.60,0.00,20.70,23.78,28.05,14.72,49.00,1021.09,2038.07,1562.75,1692.84,1921.30,600.01,603.34,34.64,0000 0000 0000 0000 000000
2017-02-26 04:43:41,0.20,7.61,0.00,20.69,23.80,28.07,14.70,48.88,1021.08,2038.01,1561.16,1691.76,1919.94,599.98,603.37,34.70,0000 0000 0000 0000 000000
2017-02-26 04:48:43,0.24,7.62,0.00,20.70,23.82,28.11,14.77,48.93,1021.17,2038.00,1559.55,1690.56,1918.59,600.28,603.66,34.75,0000 0000 0000 0000 000000
2017-02-26 04:53:44,0.19,7.63,0.00,20.73,23.85,28.12,14.63,48.74,1021.38,2038.00,1557.97,1689.56,1917.39,599.67,603.12,34.80,0000 0000 0000 0000 000000
2017-02-26 04:58:46,0.20,7.64,0.00,20.76,23.87,28.14,14.77,48.94,1021.47,2038.00,1556.39,1688.44,1916.05,600.12,603.61,34.85,0000 0000 0000 0000 000000
2017-02-26 05:03:47,0.22,7.65,0.00,20.75,23.90,28.17,14.75,48.96,1021.49,2037.99,1554.75,1687.39,1914.67,600.02,603.52,34.90,0000 0000 0000 0000 000000
2017-02-26 05:08:48,0.19,7.66,0.00,20.76,23.92,28.19,14.74,49.08,1021.49,2037.97,1553.18,1686.23,1913.31,600.02,603.37,34.95,0000 0000 0000 0000 000000
2017-02-26 05:13:50,0.20,7.67,0.00,20.80,23.94,28.22,14.80,49.12,1021.50,2037.92,1551.64,1685.12,1911.95,599.85,603.30,35.00,0000 0000 0000 0000 000000
2017-02-26 05:18:51,0.18,7.68,0.00,20.79,23.96,28.25,14.72,49.01,1021.50,2037.83,1550.15,1684.08,1910.68,599.87,603.20,35.05,0000 0000 0000 0000 000000
2017-02-26 05:23:52,0.14,7.69,0.00,20.80,23.97,28.25,14.76,49.15,1021.50,2037.44,1548.60,1683.06,1909.44,600.03,603.45,35.10,0000 0000 0000 0000 000000
2017-02-26 05:28:53,0.17,7.70,0.00,20.81,23.99,28.27,14.64,49.20,1021.50,2037.15,1547.05,1681.99,1908.14,599.92,603.28,35.15,0000 0000 0000 0000 000000
2017-02-26 05:33:54,0.19,7.71,0.00,20.82,24.00,28.28,14.72,49.17,1021.50,2037.05,1545.53,1680.99,1906.80,600.10,603.50,35.20,0000 0000 0000 0000 000000
2017-02-26 05:38:56,0.19,7.72,0.00,20.82,24.02,28.30,14.63,49.07,1021.51,2037.04,1544.02,1679.99,1905.61,599.59,602.99,35.25,0000 0000 0000 0000 000000
2017-02-26 05:43:57,0.20,7.73,0.00,20.83,24.03,28.32,14.73,49.04,1021.50,2037.01,1542.46,1678.92,1904.33,599.87,603.27,35.30,0000 0000 0000 0000 000000
2017-02-26 05:48:58,0.20,7.74,0.00,20.83,24.05,28.31,14.72,48.95,1021.50,2037.00,1540.87,1677.89,1903.05,600.00,603.26,35.35,0000 0000 0000 0000 000000
2017-02-26 05:53:59,0.20,7.75,0.00,20.85,24.06,28.33,14.69,49.07,1021.50,2037.00,1539.37,1676.87,1901.74,600.05,603.29,35.40,0000 0000 0000 0000 000000
2017-02-26 05:59:01,0.20,7.76,0.00,20.86,24.07,28.36,14.78,49.03,1021.50,2037.00,1537.84,1675.89,1900.55,600.20,603.56,35.45,0000 0000 0000 0000 000000
2017-02-26 06:04:02,0.19,7.77,0.00,20.85,24.09,28.36,14.75,48.89,1021.50,2037.00,1536.43,1674.87,1899.34,599.90,603.18,35.51,0000 0000 0000 0000 000000
2017-02-26 06:09:03,0.19,7.78,0.00,20.85,24.10,28.37,14.68,49.06,1021.50,2036.97,1534.97,1673.82,1898.07,599.78,603.24,35.56,0000 0000 0000 0000 000000
2017-02-26 06:14:05,0.20,7.79,0.00,20.86,24.10,28.38,14.75,49.01,1021.51,2036.97,1533.60,1672.79,1896.83,599.94,603.22,35.61,0000 0000 0000 0000 000000
2017-02-26 06:19:06,0.18,7.80,0.00,20.87,24.12,28.40,14.80,48.92,1021.51,2036.95,1532.10,1671.86,1895.67,600.22,603.41,35.66,0000 0000 0000 0000 000000
2017-02-26 06:24:07,0.19,7.81,0.00,20.88,24.12,28.41,14.75,49.02,1021.51,2036.92,1530.61,1670.87,1894.49,600.06,603.17,35.71,0000 0000 0000 0000 000000
2017-02-26 06:29:09,0.16,7.82,0.00,20.90,24.14,28.41,14.65,49.01,1021.53,2036.86,1529.20,1669.91,1893.36,600.12,603.23,35.76,0000 0000 0000 0000 000000
2017-02-26 06:34:10,0.20,7.83,0.00,20.90,24.15,28.42,14.71,48.96,1021.51,2036.81,1527.68,1668.95,1892.14,599.91,603.00,35.81,0000 0000 0000 0000 000000
2017-02-26 06:39:12,0.19,7.84,0.00,20.90,24.15,28.42,14.75,49.16,1021.52,2036.63,1526.05,1667.85,1890.84,600.09,603.28,35.86,0000 0000 0000 0000 000000
2017-02-26 06:44:13,0.18,7.84,0.00,20.89,24.17,28.44,14.74,49.02,1021.51,2036.40,1524.57,1666.89,1889.64,599.87,603.17,35.91,0000 0000 0000 0000 000000
2017-02-26 06:49:15,0.16,7.85,0.00,20.90,24.17,28.43,14.74,48.98,1021.51,2036.32,1523.08,1665.91,1888.50,599.77,602.95,35.96,0000 0000 0000 0000 000000
2017-02-26 06:54:16,0.17,7.86,0.00,20.89,24.18,28.45,14.76,48.96,1021.52,2036.11,1521.62,1664.95,1887.32,599.93,603.13,36.01,0000 0000 0000 0000 000000
2017-02-26 06:59:17,0.17,7.87,0.00,20.87,24.20,28.44,14.79,48.98,1021.56,2036.07,1520.10,1663.96,1886.03,600.12,603.47,36.06,0000 0000 0000 0000 000000
2017-02-26 07:04:18,0.21,7.88,0.00,20.88,24.20,28.45,14.77,48.87,1021.77,2036.05,1518.64,1663.03,1884.84,600.04,603.45,36.11,0000 0000 0000 0000 000000
2017-02-26 07:09:20,0.19,7.89,0.00,20.91,24.20,28.46,14.72,48.97,1021.92,2036.01,1517.08,1662.02,1883.66,599.85,603.30,36.16,0000 0000 0000 0000 000000
2017-02-26 07:14:21,0.21,7.90,0.00,20.89,24.21,28.45,14.84,48.96,1021.97,2036.01,1515.60,1660.95,1882.39,600.40,603.89,36.21,0000 0000 0000 0000 000000
2017-02-26 07:19:22,0.20,7.91,0.00,20.89,24.22,28.46,14.79,48.89,1021.99,2036.00,1513.97,1659.95,1881.14,600.04,603.58,36.26,0000 0000 0000 0000 000000
2017-02-26 07:24:23,0.21,7.93,0.00,20.89,24.22,28.47,14.65,48.91,1021.98,2036.00,1512.40,1658.91,1879.83,599.88,603.34,36.31,0000 0000 0000 0000 000000
2017-02-26 07:29:24,0.25,7.94,0.00,20.88,24.22,28.47,14.73,48.83,1021.99,2036.00,1510.66,1657.78,1878.51,599.92,603.42,36.36,0000 0000 0000 0000 000000
2017-02-26 07:34:26,0.24,7.95,0.00,20.89,24.22,28.46,14.65,48.80,1021.99,2036.00,1508.82,1656.65,1877.15,599.91,603.42,36.41,0000 0000 0000 0000 000000
2017-02-26 07:39:27,0.26,7.96,0.00,20.90,24.24,28.45,14.77,48.89,1021.99,2036.00,1506.82,1655.48,1875.69,600.12,603.51,36.47,0000 0000 0000 0000 000000
2017-02-26 07:44:29,0.21,7.97,0.00,20.88,24.24,28.47,14.76,48.93,1021.99,2036.00,1505.06,1654.44,1874.45,599.97,603.53,36.52,0000 0000 0000 0000 000000
2017-02-26 07:49:30,0.27,7.99,0.00,20.84,24.25,28.46,14.83,49.06,1021.99,2036.00,1503.06,1653.12,1872.88,600.11,603.69,36.57,0000 0000 0000 0000 000000
2017-02-26 07:54:31,0.24,8.00,0.00,20.85,24.25,28.46,14.83,49.11,1021.99,2035.99,1501.01,1651.93,1871.47,600.18,603.76,36.62,0000 0000 0000 0000 000000
2017-02-26 07:59:32,0.25,8.01,0.00,20.86,24.25,28.45,14.76,49.01,1021.99,2035.99,1499.06,1650.80,1870.05,600.19,603.74,36.67,0000 0000 0000 0000 000000
2017-02-26 08:04:33,0.25,8.02,0.00,20.85,24.25,28.44,14.74,49.00,1021.99,2035.99,1497.11,1649.69,1868.69,599.94,603.61,36.72,0000 0000 0000 0000 000000
2017-02-26 08:09:34,0.24,8.04,0.00,20.84,24.25,28.43,14.81,48.99,1022.00,2035.99,1495.24,1648.56,1867.37,600.32,603.92,36.77,0000 0000 0000 0000 000000
2017-02-26 08:14:36,0.21,8.05,0.00,20.86,24.25,28.41,14.72,49.00,1022.01,2035.99,1493.51,1647.61,1866.12,599.91,603.48,36.82,0000 0000 0000 0000 000000
2017-02-26 08:19:37,0.23,8.06,0.00,20.86,24.25,28.43,14.83,49.16,1022.01,2035.99,1491.75,1646.57,1864.88,599.92,603.44,36.87,0000 0000 0000 0000 000000
2017-02-26 08:24:38,0.23,8.07,0.00,20.88,24.25,28.43,14.75,49.09,1022.02,2035.99,1489.99,1645.56,1863.65,599.96,603.51,36.92,0000 0000 0000 0000 000000
2017-02-26 08:29:40,0.22,8.08,0.00,20.87,24.24,28.41,14.77,49.11,1022.02,2035.99,1488.19,1644.48,1862.35,600.16,603.74,36.97,0000 0000 0000 0000 000000
2017-02-26 08:34:41,0.21,8.09,0.00,20.84,24.24,28.42,14.69,48.96,1022.01,2035.99,1486.48,1643.54,1861.14,599.89,603.41,37.02,0000 0000 0000 0000 000000
2017-02-26 08:39:42,0.24,8.10,0.00,20.83,24.24,28.40,14.79,49.09,1022.01,2035.99,1484.67,1642.49,1859.85,600.28,603.94,37.07,0000 0000 0000 0000 000000
2017-02-26 08:44:44,0.23,8.12,0.00,20.84,24.24,28.43,14.77,49.21,1022.05,2035.99,1482.89,1641.38,1858.52,600.07,603.69,37.12,0000 0000 0000 0000 000000
2017-02-26 08:49:45,0.21,8.13,0.00,20.81,24.24,28.40,14.73,49.06,1022.20,2036.00,1481.24,1640.46,1857.34,600.02,603.78,37.17,0000 0000 0000 0000 000000
2017-02-26 08:54:46,0.22,8.14,0.00,20.80,24.23,28.39,14.69,49.17,1022.30,2036.00,1479.55,1639.45,1856.08,599.69,603.56,37.22,0000 0000 0000 0000 000000
2017-02-26 08:59:48,0.23,8.15,0.00,20.79,24.23,28.38,14.72,49.13,1022.45,2036.00,1477.73,1638.45,1854.89,599.84,603.79,37.27,0000 0000 0000 0000 000000
2017-02-26 09:04:49,0.25,8.16,0.00,20.79,24.22,28.38,14.88,49.25,1022.45,2036.00,1475.77,1637.30,1853.62,600.31,604.32,37.32,0000 0000 0000 0000 000000
2017-02-26 09:09:51,0.22,8.18,0.00,20.80,24.22,28.36,14.74,49.22,1022.44,2036.00,1473.97,1636.29,1852.40,600.25,604.20,37.38,0000 0000 0000 0000 000000
2017-02-26 09:14:52,0.19,8.19,0.00,20.79,24.22,28.35,14.81,49.21,1022.46,2036.00,1472.41,1635.46,1851.36,600.29,604.21,37.43,0000 0000 0000 0000 000000
2017-02-26 09:19:53,0.18,8.20,0.00,20.78,24.22,28.34,14.78,49.22,1022.48,2036.00,1470.87,1634.67,1850.21,599.88,603.92,37.48,0000 0000 0000 0000 000000
2017-02-26 09:24:55,0.19,8.21,0.00,20.77,24.22,28.35,14.75,49.31,1022.48,2036.00,1469.29,1633.81,1849.15,600.01,604.00,37.53,0000 0000 0000 0000 000000
2017-02-26 09:29:56,0.23,8.22,0.00,20.79,24.22,28.34,14.72,49.39,1022.48,2036.00,1467.53,1632.86,1847.96,599.66,603.70,37.58,0000 0000 0000 0000 000000
2017-02-26 09:34:57,0.26,8.23,0.00,20.77,24.21,28.35,14.86,49.40,1022.48,2036.00,1465.60,1631.82,1846.64,600.37,604.41,37.63,0000 0000 0000 0000 000000
2017-02-26 09:39:59,0.24,8.24,0.00,20.73,24.20,28.33,14.77,49.43,1022.48,2036.01,1463.70,1630.75,1845.38,599.74,603.85,37.68,0000 0000 0000 0000 000000
2017-02-26 09:45:00,0.22,8.26,0.00,20.73,24.20,28.33,14.75,49.31,1022.48,2036.01,1461.88,1629.75,1844.12,599.84,604.04,37.73,0000 0000 0000 0000 000000
2017-02-26 09:50:01,0.22,8.27,0.00,20.73,24.20,28.32,14.78,49.37,1022.47,2036.01,1460.16,1628.80,1842.85,600.07,604.00,37.78,0000 0000 0000 0000 000000
2017-02-26 09:55:03,0.22,8.28,0.00,20.71,24.20,28.30,14.79,49.33,1022.48,2036.01,1458.40,1627.84,1841.65,600.09,604.22,37.83,0000 0000 0000 0000 000000
2017-02-26 10:00:04,0.25,8.29,0.00,20.72,24.20,28.31,14.82,49.33,1022.48,2036.04,1456.60,1626.74,1840.43,600.07,604.15,37.88,0000 0000 0000 0000 000000
2017-02-26 10:05:05,0.21,8.30,0.00,20.72,24.18,28.32,14.74,49.48,1022.47,2036.04,1454.90,1625.79,1839.13,599.75,603.93,37.93,0000 0000 0000 0000 000000
2017-02-26 10:10:07,0.17,8.31,0.00,20.70,24.17,28.30,14.65,49.33,1022.48,2036.02,1453.29,1624.97,1837.98,599.98,604.25,37.98,0000 0000 0000 0000 000000
2017-02-26 10:15:08,0.23,8.32,0.00,20.69,24.17,28.28,14.80,49.48,1022.47,2036.04,1451.65,1624.10,1836.84,600.23,604.43,38.03,0000 0000 0000 0000 000000
2017-02-26 10:20:09,0.24,8.33,0.00,20.69,24.17,28.30,14.75,49.35,1022.47,2036.08,1449.94,1623.16,1835.67,600.17,604.31,38.08,0000 0000 0000 0000 000000
2017-02-26 10:25:10,0.22,8.35,0.00,20.69,24.17,28.28,14.78,49.39,1022.47,2036.05,1448.12,1621.99,1834.28,600.06,604.35,38.13,0000 0000 0000 0000 000000
2017-02-26 10:30:11,0.22,8.36,0.00,20.66,24.16,28.27,14.83,49.43,1022.48,2036.05,1446.46,1621.07,1833.20,600.21,604.41,38.18,0000 0000 0000 0000 000000
2017-02-26 10:35:13,0.21,8.37,0.00,20.66,24.15,28.27,14.89,49.47,1022.48,2036.06,1444.82,1620.29,1832.27,600.07,604.36,38.24,0000 0000 0000 0000 000000
2017-02-26 10:40:14,0.20,8.38,0.00,20.64,24.15,28.26,14.76,49.40,1022.48,2036.04,1443.13,1619.47,1831.22,599.91,604.19,38.29,0000 0000 0000 0000 000000
2017-02-26 10:45:15,0.22,8.39,0.00,20.62,24.15,28.25,14.78,49.35,1022.48,2036.08,1441.40,1618.60,1830.10,600.05,604.47,38.34,0000 0000 0000 0000 000000
2017-02-26 10:50:16,0.18,8.40,0.00,20.65,24.15,28.27,14.79,49.38,1022.48,2036.13,1439.76,1617.87,1829.08,600.14,604.30,38.39,0000 0000 0000 0000 000000
2017-02-26 10:55:18,0.18,8.41,0.00,20.65,24.15,28.24,14.70,49.29,1022.48,2036.09,1438.17,1617.05,1828.12,599.85,604.25,38.44,0000 0000 0000 0000 000000
2017-02-26 11:00:19,0.21,8.42,0.00,20.62,24.15,28.23,14.82,49.38,1022.49,2036.11,1436.67,1616.38,1827.23,600.02,604.51,38.49,0000 0000 0000 0000 000000
2017-02-26 11:05:20,0.17,8.43,0.00,20.61,24.14,28.22,14.76,49.45,1022.49,2036.20,1435.14,1615.82,1826.28,599.90,604.31,38.54,0000 0000 0000 0000 000000
2017-02-26 11:10:21,0.27,8.44,0.00,20.63,24.12,28.22,14.76,49.53,1022.50,2036.41,1433.36,1614.80,1825.26,600.12,604.44,38.59,0000 0000 0000 0000 000000
2017-02-26 11:15:23,0.30,8.46,0.00,20.62,24.12,28.21,14.80,49.75,1022.57,2036.51,1431.36,1613.60,1823.82,600.27,604.64,38.64,0000 0000 0000 0000 000000
2017-02-26 11:20:24,0.31,8.47,0.00,20.61,24.12,28.21,14.78,49.81,1022.60,2036.72,1429.38,1612.25,1822.14,599.87,604.36,38.69,0000 0000 0000 0000 000000
2017-02-26 11:25:25,0.26,8.49,0.00,20.61,24.11,28.24,14.79,49.58,1022.70,2036.68,1427.49,1610.88,1820.50,600.01,604.51,38.74,0000 0000 0000 0000 000000
2017-02-26 11:30:27,0.28,8.50,0.00,20.61,24.10,28.22,14.74,49.72,1022.70,2036.71,1425.65,1609.65,1818.91,600.04,604.67,38.79,0000 0000 0000 0000 000000
2017-02-26 11:35:28,0.23,8.51,0.00,20.58,24.10,28.19,14.80,49.70,1022.85,2036.66,1423.91,1608.60,1817.62,600.44,605.01,38.84,0000 0000 0000 0000 000000
2017-02-26 11:40:29,0.17,8.52,0.00,20.56,24.09,28.18,14.86,49.84,1022.83,2036.80,1422.37,1607.97,1816.67,600.03,604.68,38.89,0000 0000 0000 0000 000000
2017-02-26 11:45:31,0.21,8.53,0.00,20.58,24.07,28.18,14.70,49.70,1022.81,2036.80,1420.82,1607.15,1815.80,599.76,604.36,38.94,0000 0000 0000 0000 000000
2017-02-26 11:50:32,0.17,8.54,0.00,20.57,24.07,28.20,14.74,49.68,1022.77,2036.85,1419.37,1606.67,1814.94,599.92,604.54,38.99,0000 0000 0000 0000 000000
2017-02-26 11:55:34,0.19,8.55,0.00,20.57,24.07,28.16,14.81,49.63,1022.84,2036.95,1417.75,1605.99,1814.06,600.02,604.67,39.04,0000 0000 0000 0000 000000
2017-02-26 12:00:35,0.23,8.56,0.00,20.56,24.07,28.15,14.82,49.77,1022.68,2036.97,1416.03,1605.13,1813.02,599.98,604.59,39.09,0000 0000 0000 0000 000000
2017-02-26 12:05:37,0.41,8.58,0.00,20.56,24.06,28.15,14.75,49.78,1022.72,2036.95,1413.56,1603.39,1811.13,599.69,604.23,39.14,0000 0000 0000 0000 000000
2017-02-26 12:10:38,0.34,8.60,0.00,20.55,24.05,28.15,14.81,49.78,1022.88,2036.98,1411.27,1601.60,1809.05,600.14,604.89,39.20,0000 0000 0000 0000 000000
2017-02-26 12:15:40,0.30,8.62,0.00,20.55,24.05,28.14,14.76,49.78,1022.81,2036.98,1409.24,1600.09,1807.32,600.20,604.85,39.25,0000 0000 0000 0000 000000
2017-02-26 12:20:41,0.31,8.63,0.00,20.54,24.04,28.12,14.81,49.84,1022.83,2036.98,1407.11,1598.74,1805.62,600.00,604.56,39.30,0000 0000 0000 0000 000000
2017-02-26 12:25:42,0.21,8.64,0.00,20.51,24.03,28.14,14.75,49.85,1022.79,2036.99,1405.48,1597.79,1804.22,599.75,604.56,39.35,0000 0000 0000 0000 000000
2017-02-26 12:30:43,0.27,8.66,0.00,20.53,24.02,28.15,14.87,49.72,1022.92,2036.99,1403.74,1596.63,1802.85,600.50,605.21,39.40,0000 0000 0000 0000 000000
2017-02-26 12:35:44,0.25,8.67,0.00,20.53,24.02,28.13,14.75,49.73,1022.87,2036.99,1401.91,1595.64,1801.60,599.83,604.57,39.45,0000 0000 0000 0000 000000
2017-02-26 12:40:46,0.24,8.69,0.00,20.50,24.02,28.13,14.83,49.87,1022.85,2036.99,1400.15,1594.44,1800.16,600.06,604.83,39.50,0000 0000 0000 0000 000000
2017-02-26 12:45:47,0.18,8.69,0.00,20.50,24.01,28.11,14.84,49.82,1022.90,2036.99,1398.60,1593.86,1799.14,600.33,605.16,39.55,0000 0000 0000 0000 000000
2017-02-26 12:50:48,0.18,8.71,0.00,20.52,24.00,28.10,14.81,49.86,1022.95,2036.99,1397.13,1593.06,1798.30,599.85,604.56,39.60,0000 0000 0000 0000 000000
2017-02-26 12:55:49,0.17,8.71,0.00,20.51,24.00,28.06,14.82,49.79,1022.96,2036.99,1395.70,1592.70,1797.62,599.80,604.59,39.65,0000 0000 0000 0000 000000